Skip Page Navigation
NASA JPL Caltech
NASA Logo - Jet Propulsion Laboratory + View the NASA Portal
+ Near-Earth Object (NEO) Program
Search JPL
JPL Home Earth Solar System Stars & Galaxies Technology
JPL Solar System Dynamics
BODIES ORBITS EPHEMERIDES TOOLS PHYSICAL DATA DISCOVERY FAQ SITE MAP
JPL Small-Body Database Browser
Search: [ help ]  
73708 (1992 DV)
Classification: Main-belt Asteroid          SPK-ID: 2073708
Ephemeris | Orbit Diagram | Orbital Elements | Physical Parameters | Discovery Circumstances | Close-Approach Data ]

[ show orbit diagram ]
Orbital Elements at Epoch 2457000.5 (2014-Dec-09.0) TDB
Reference: JPL 17 (heliocentric ecliptic J2000)
 Element Value Uncertainty (1-sigma)   Units 
e .2884811481906692 6.9774e-08  
a 2.678140945352895 1.7016e-08 AU
q 1.905547770421047 1.8332e-07 AU
i 7.945809023599091 7.0519e-06 deg
node 149.519141558997 5.5399e-05 deg
peri 5.359948091077385 5.7144e-05 deg
M 78.0575502068091 1.2547e-05 deg
tp 2456653.394906067287
(2013-Dec-26.89490607)
5.463e-05 JED
period 1600.842371874441
4.38
1.5257e-05
4.177e-08
d
yr
n .2248816037886807 2.1433e-09 deg/d
Q 3.450734120284741 2.1925e-08 AU
  Orbit Determination Parameters
   # obs. used (total)      407  
   data-arc span      8522 days (23.33 yr)  
   first obs. used      1992-02-25  
   last obs. used      2015-06-26  
   planetary ephem.      DE431  
   SB-pert. ephem.      SB431-BIG16  
   condition code      0  
   fit RMS      .57669  
   data source      ORB  
   producer      Otto Matic  
   solution date      2015-Jul-06 13:52:02  

Additional Information
 Earth MOID = .916565 AU 
 T_jup = 3.304 
[ show covariance matrix ]

Ephemeris | Orbit Diagram | Orbital Elements | Physical Parameters | Discovery Circumstances | Close-Approach Data ]

Physical Parameter Table
Parameter Symbol Value Units Sigma Reference Notes
absolute magnitude H 15.2 mag n/a MPO280220  

73708 (1992 DV)          Discovered 1992-Feb-25 by Ueda, S., Kaneda, H. at Kushiro
Reference: 20040415/Numbers.arcLast Updated: 2004-04-19

[ show close-approach data ]
Ephemeris | Orbit Diagram | Orbital Elements | Physical Parameters | Discovery Circumstances | Close-Approach Data ]
ABOUT SSD CREDITS/AWARDS PRIVACY/COPYRIGHT GLOSSARY LINKS
FirstGov 2015-Sep-01 01:51 UT
(server date/time)  
NASA Home Page
Site Manager:   Ryan S. Park
Webmaster  Alan B. Chamberlin